Wind_Speed
17 18 19 19 19 20 20 21 21 21 22 23 23 24 24 24 24 24 24 24 24 24 25 25 25 25 25 25 25 26 26 26 26 27 27 26 25 24 24 25 25 25 26 26 27 27 27 28 28 28 28 27
19 20 21 21 22 22 22 23 23 24 24 24 25 25 25 25 25 25 25 25 25 25 25 26 26 27 27 27 27 27 28 28 28 28 28 28 27 26 25 25 25 26 26 26 27 27 28 28 29 29 29 29
21 22 23 24 24 25 25 26 26 26 26 26 27 27 27 27 27 27 26 26 26 26 26 27 27 27 28 28 28 28 28 29 29 29 29 29 29 28 27 26 26 26 27 27 27 28 28 29 29 30 30 30
22 23 24 24 25 26 26 27 27 27 28 28 28 28 28 28 28 28 27 27 27 27 27 27 28 28 28 28 28 29 29 29 30 30 30 30 31 30 30 29 28 28 28 28 28 28 29 29 30 30 30 31
22 23 23 24 24 25 26 26 27 27 28 28 28 29 29 29 29 29 28 29 29 29 29 29 29 29 29 29 29 29 30 30 30 31 31 31 31 32 32 31 31 31 30 30 30 30 30 30 30 31 31 31
22 23 23 24 24 25 26 26 27 28 28 28 29 29 29 29 29 30 30 30 30 30 31 31 31 31 31 31 30 31 31 31 31 32 32 32 32 33 33 33 33 33 32 32 32 32 32 32 32 32 32 32
21 22 23 23 24 24 25 26 26 27 27 28 28 28 29 29 29 30 30 30 30 31 31 32 32 32 33 33 33 33 33 33 33 33 34 34 34 34 35 35 35 34 34 34 34 34 34 34 34 34 34 34
20 20 21 22 23 23 24 24 25 25 25 26 26 26 27 27 28 28 28 29 29 30 30 31 32 32 33 34 34 35 35 35 36 36 36 36 36 36 36 37 37 37 37 36 36 36 35 35 35 35 35 35
20 20 21 21 22 22 23 23 23 24 24 24 25 25 26 26 26 27 27 27 28 28 29 30 30 31 31 32 33 34 35 35 36 37 37 38 39 39 39 38 38 39 39 39 39 38 38 37 37 37 37 37
19 19 19 19 19 20 20 20 21 21 22 22 23 24 24 25 25 26 26 26 27 27 28 28 29 30 30 31 32 32 33 34 34 35 36 37 38 39 40 41 41 40 40 40 41 41 41 40 39 39 39 39
17 17 18 18 18 19 19 19 20 20 21 22 22 23 23 24 25 25 26 26 26 27 27 28 28 29 29 30 31 32 32 33 34 34 35 36 37 38 39 40 41 42 42 42 42 42 42 43 42 42 41 41
17 18 18 19 19 20 20 20 21 21 22 22 23 23 24 24 25 26 26 27 27 28 28 28 29 29 30 30 31 32 32 33 33 34 35 35 36 37 38 39 40 41 42 43 44 44 44 44 44 44 44 44
19 19 20 20 20 21 21 21 21 22 22 23 23 24 24 25 26 26 27 28 28 29 29 30 30 30 31 31 31 32 33 33 34 34 35 36 36 37 38 38 39 40 41 42 43 45 45 45 46 46 46 46
19 20 20 21 21 21 21 22 22 22 23 23 23 24 24 25 26 27 27 28 29 29 30 31 31 32 32 32 33 33 34 34 35 35 36 36 37 38 38 39 40 40 41 41 43 44 45 46 47 47 48 48
20 20 21 21 22 22 22 23 23 23 23 23 24 24 25 25 26 27 27 28 29 30 30 31 32 33 33 33 34 34 35 35 36 36 37 37 38 39 39 40 40 41 41 42 43 44 45 45 46 48 49 49
20 21 21 22 22 22 23 23 24 24 24 25 25 25 26 26 27 27 28 28 29 30 31 31 32 32 33 34 34 35 35 36 36 37 37 38 39 39 40 41 41 42 43 43 44 44 45 46 46 48 49 49
21 21 22 22 23 23 23 24 24 24 25 25 26 26 27 27 27 28 28 29 30 30 31 32 32 33 34 34 35 36 36 37 37 38 38 39 39 40 40 41 41 42 43 44 44 45 46 47 47 48 49 50
22 22 23 23 24 24 24 24 24 25 25 26 26 27 27 28 28 29 30 31 31 32 33 33 34 35 35 36 36 37 38 38 39 39 40 40 40 41 41 42 42 42 43 44 44 45 46 47 48 49 49 50
23 23 24 24 24 25 25 25 25 25 26 26 27 28 28 29 30 31 31 32 33 34 35 35 36 37 37 38 38 39 39 40 40 41 41 42 42 42 43 43 44 44 44 44 45 46 46 47 48 49 50 51
24 25 25 25 26 26 26 26 26 26 27 27 28 29 29 30 31 32 33 34 34 35 36 37 38 38 39 39 40 40 41 41 42 42 43 43 43 44 44 44 45 45 45 46 46 47 48 48 49 49 50 51
26 26 27 27 27 28 28 28 28 28 29 29 29 30 30 31 32 33 34 35 36 37 38 38 39 40 40 41 41 42 42 42 43 43 44 44 45 45 45 46 46 46 46 47 47 47 48 49 50 51 51 52
28 28 29 30 30 31 31 31 31 31 31 31 31 31 32 32 33 34 35 36 37 38 39 39 40 41 41 42 42 43 43 44 44 45 45 45 46 46 47 47 48 48 48 48 48 48 49 50 51 52 53 53
30 31 31 32 32 33 33 33 33 33 33 33 33 33 34 34 35 36 37 38 39 39 40 41 41 42 42 43 43 44 44 45 45 46 46 47 47 47 48 49 49 50 50 50 50 50 50 50 51 52 53 54
31 32 32 33 33 34 34 34 34 34 35 35 35 35 35 35 36 37 38 39 40 40 41 42 42 43 44 44 45 45 45 46 46 47 47 48 48 49 49 50 51 51 52 52 52 51 51 52 52 52 53 54
33 33 34 34 34 35 35 35 35 35 36 36 36 36 36 36 37 37 38 39 40 41 42 43 43 44 45 45 46 46 47 47 48 48 49 49 49 50 50 51 51 52 53 54 54 54 52 52 52 53 53 54
34 34 35 35 35 36 36 36 36 37 37 37 37 38 38 38 38 38 39 40 41 42 42 43 44 44 45 46 46 47 48 48 49 49 50 50 50 51 51 52 53 53 54 55 56 57 56 54 53 53 53 54
34 34 35 35 36 36 37 37 37 38 39 39 39 40 40 39 40 40 40 41 41 42 42 43 44 45 45 46 47 47 48 49 49 50 50 51 51 51 52 52 53 54 55 56 57 58 58 58 56 55 53 52
34 35 35 36 36 37 37 38 38 39 40 40 41 41 41 41 41 41 41 42 42 43 43 44 44 45 46 46 47 48 48 49 49 50 50 51 51 52 52 53 53 54 55 56 57 58 58 59 59 58 56 53
35 35 36 36 37 38 38 39 39 40 41 41 42 42 42 42 42 42 42 42 43 43 44 44 45 46 46 47 48 48 49 49 50 50 50 51 51 52 53 53 53 53 54 55 56 57 58 59 59 60 59 57
35 36 36 37 37 38 39 39 40 41 42 42 42 43 43 43 43 43 42 42 43 43 44 45 46 47 48 48 49 49 50 50 51 51 51 52 52 52 53 53 53 54 54 54 55 56 56 57 59 60 59 59
36 36 37 37 38 39 39 40 41 42 43 43 43 43 44 44 44 44 43 43 43 44 45 46 47 48 49 49 49 50 50 51 51 52 52 52 53 53 53 53 54 54 54 53 54 54 55 56 57 59 59 59
Wind_Direction
283 284 284 284 284 286 286 286 286 286 286 286 287 288 290 291 291 292 291 291 290 289 289 289 288 287 286 285 285 284 284 283 282 281 280 278 276 275 274 273 272 271 269 268 266 265 263 261 259 258 256 254
281 282 283 284 284 283 283 283 283 284 284 285 285 286 287 288 289 290 291 291 290 290 290 290 290 289 289 288 287 286 285 285 284 283 282 281 279 277 275 274 272 270 268 266 265 264 263 261 260 259 258 256
283 283 283 283 283 283 283 283 284 285 285 286 287 287 287 287 288 288 289 290 290 290 290 290 290 290 290 290 289 288 288 287 286 285 283 282 281 279 278 276 275 272 270 267 265 263 261 261 260 259 259 258
284 284 284 284 285 286 286 287 288 288 289 290 290 290 290 289 289 289 288 288 289 289 289 289 289 289 289 289 289 288 288 288 287 286 285 284 283 281 280 278 277 276 273 271 269 266 263 261 260 258 258 257
287 287 288 289 290 290 291 291 292 292 292 292 293 293 293 292 292 291 290 290 289 289 289 288 288 289 289 289 289 288 288 287 287 286 286 285 284 283 281 280 279 277 276 274 272 270 268 265 263 261 259 257
289 290 290 291 292 292 292 292 292 293 293 293 294 294 294 294 293 293 292 291 291 290 290 290 289 289 289 289 289 288 288 287 287 286 286 285 284 283 282 281 280 279 278 276 274 272 271 269 267 265 263 261
289 290 290 291 291 291 291 291 291 292 292 293 293 293 293 293 293 293 292 292 291 291 290 290 289 289 289 289 289 288 288 287 287 286 286 285 284 283 282 281 280 279 278 277 276 274 271 270 269 268 266 264
288 287 288 288 289 290 290 291 291 291 291 292 292 292 292 292 292 292 292 292 292 291 291 291 290 290 289 289 289 288 288 288 288 288 287 287 286 284 283 282 280 279 278 278 277 276 274 272 270 269 267 266
286 287 287 288 289 290 290 291 291 292 292 293 294 295 295 295 295 295 295 295 295 294 294 294 293 293 292 291 291 290 289 289 288 288 287 287 287 286 285 284 282 280 279 278 277 277 276 275 273 271 270 268
288 290 291 292 294 294 295 295 296 298 299 300 301 302 302 302 303 303 303 302 302 301 299 298 297 296 295 294 294 293 292 291 290 289 288 288 287 286 286 285 284 282 280 279 277 276 275 275 274 273 272 271
293 295 297 299 300 301 302 303 304 305 306 307 307 307 308 308 308 308 307 307 306 305 304 303 301 300 299 298 297 295 295 294 293 292 291 290 289 287 286 285 285 284 283 281 279 277 276 274 274 273 273 272
299 301 302 303 305 306 307 308 309 309 309 310 310 310 310 309 309 309 308 307 307 306 305 304 303 302 301 300 299 298 298 297 296 295 294 293 292 290 289 287 286 285 284 283 282 280 278 277 275 273 272 272
304 305 306 307 308 309 310 310 310 310 310 310 310 310 310 309 309 308 308 308 307 306 305 305 304 303 302 301 300 299 298 298 297 297 296 295 294 293 292 290 289 287 285 284 283 281 280 279 277 276 274 272
305 306 308 309 309 310 310 310 310 310 310 309 309 308 308 307 307 307 307 306 306 305 305 305 304 304 303 302 301 300 299 299 298 297 296 295 295 294 293 292 291 290 288 287 285 283 281 280 278 277 276 274
305 306 307 308 308 309 309 309 309 309 309 308 308 307 307 307 306 306 306 305 305 304 304 304 303 303 303 302 302 301 300 300 299 298 297 296 295 295 294 293 292 291 290 289 287 286 284 282 280 278 276 275
303 304 304 305 305 305 306 306 306 307 307 307 307 307 307 307 306 306 305 305 304 303 303 302 302 302 301 301 301 300 299 299 298 298 297 297 296 296 295 294 293 293 292 291 289 288 287 285 283 280 278 275
301 302 302 302 302 303 303 304 304 305 306 306 306 306 306 306 305 304 303 303 302 301 301 301 301 301 301 301 300 300 300 299 299 298 298 298 297 296 296 295 294 294 293 292 291 290 288 287 285 283 281 279
299 299 299 300 301 301 302 303 303 304 305 305 304 304 303 303 303 303 303 303 303 303 303 303 302 302 302 302 301 301 300 300 300 299 299 298 298 297 297 296 295 294 293 292 291 290 289 287 286 284 283 281
298 298 299 300 300 301 301 302 303 303 303 302 302 302 303 304 305 305 306 306 306 305 305 305 304 304 304 303 303 302 302 301 300 300 300 299 298 298 298 297 296 296 295 294 293 291 290 288 287 285 283 281
298 299 299 299 300 300 301 301 301 301 301 301 303 304 306 307 307 307 307 307 307 307 307 307 306 306 306 305 304 304 303 302 301 300 300 299 298 298 297 297 296 296 295 294 294 293 291 290 288 286 284 282
298 299 299 299 299 300 300 300 300 301 302 304 306 307 308 308 308 309 309 308 309 308 308 308 307 307 306 306 305 304 303 302 301 301 300 299 299 298 297 297 296 295 295 294 293 293 292 291 289 288 286 284
298 298 298 298 298 299 299 300 301 302 304 306 307 308 309 309 310 310 310 309 309 309 309 308 308 307 307 306 306 305 304 303 302 302 301 300 299 299 298 297 296 296 295 295 294 293 292 291 289 288 287 285
296 296 296 297 297 298 298 299 301 302 303 305 306 307 308 309 309 309 309 309 309 308 308 308 307 307 307 306 306 305 304 304 303 303 302 301 300 300 299 298 297 297 296 295 294 294 292 291 289 288 287 285
294 294 295 295 295 296 297 298 300 301 302 303 304 305 306 306 306 306 306 306 306 307 307 307 307 307 306 306 306 305 305 304 304 303 302 302 301 300 299 299 298 298 297 296 295 294 293 292 291 289 287 285
293 294 294 295 295 296 298 299 300 300 301 301 302 302 302 303 303 303 303 303 304 305 305 306 306 306 306 306 306 305 305 304 304 303 302 302 301 301 300 299 299 298 297 297 296 294 293 292 290 289 288 286
294 294 295 297 297 299 300 301 301 301 301 301 301 301 301 301 301 301 301 302 302 303 303 304 305 305 305 305 305 304 304 303 303 302 302 301 301 301 300 300 299 298 298 297 296 295 294 292 289 288 286 285
296 297 298 299 300 301 302 302 302 301 301 301 301 301 301 301 301 301 301 301 301 302 302 303 304 304 304 304 304 303 303 302 302 302 301 301 301 300 300 299 299 298 298 297 296 296 295 293 291 288 286 284
298 300 300 301 302 302 302 302 302 301 301 301 301 301 301 301 301 301 301 301 301 302 303 304 304 304 304 304 303 303 302 302 302 301 301 301 300 300 299 298 298 297 297 296 296 295 294 293 291 289 287 284
300 301 302 302 302 302 302 303 302 301 301 301 301 301 301 301 300 300 300 301 301 302 304 304 305 305 304 304 304 303 303 302 302 302 301 301 300 299 299 298 297 296 296 295 295 294 293 292 290 289 288 285
300 301 302 302 302 302 303 302 302 301 300 301 301 301 300 300 300 300 300 301 302 303 304 305 305 305 305 305 304 304 304 303 303 302 302 301 300 300 299 298 297 296 295 294 293 292 291 290 289 288 287 286
300 302 303 303 302 303 303 302 301 300 300 300 300 300 299 299 299 300 301 302 303 305 306 306 306 306 306 306 305 305 305 304 304 303 302 302 301 300 299 298 298 297 295 294 292 291 289 288 287 287 286 285
Height
3159 3158 3157 3157 3156 3155 3155 3154 3154 3153 3153 3152 3152 3152 3151 3151 3151 3151 3150 3150 3150 3150 3149 3149 3148 3149 3149 3149 3148 3148 3148 3147 3147 3147 3147 3147 3148 3148 3148 3148 3148 3149 3149 3150 3150 3151 3151 3151 3151 3152 3152 3152
3157 3156 3155 3155 3154 3154 3153 3152 3152 3151 3151 3151 3150 3150 3149 3149 3149 3148 3148 3148 3148 3148 3147 3146 3146 3146 3146 3146 3146 3145 3145 3145 3145 3144 3144 3144 3144 3145 3145 3145 3145 3145 3146 3146 3147 3147 3148 3148 3149 3149 3149 3149
3155 3154 3153 3153 3152 3151 3151 3150 3149 3149 3148 3148 3148 3147 3147 3147 3147 3146 3146 3146 3146 3145 3145 3144 3144 3143 3143 3143 3143 3143 3142 3142 3142 3142 3142 3141 3141 3142 3142 3142 3142 3142 3142 3142 3143 3143 3144 3144 3145 3145 3146 3146
3153 3152 3151 3151 3150 3149 3148 3147 3147 3146 3146 3145 3145 3144 3144 3144 3144 3144 3143 3143 3143 3143 3142 3142 3141 3141 3141 3140 3140 3140 3139 3139 3139 3138 3138 3138 3138 3138 3139 3139 3139 3139 3139 3139 3139 3140 3140 3140 3141 3141 3142 3143
3150 3150 3149 3148 3147 3147 3146 3145 3144 3144 3143 3143 3142 3142 3141 3141 3141 3140 3140 3140 3140 3140 3139 3139 3138 3138 3138 3137 3137 3137 3137 3136 3136 3136 3135 3135 3135 3135 3135 3135 3135 3135 3136 3136 3136 3136 3137 3137 3137 3137 3138 3138
3148 3147 3147 3146 3145 3144 3144 3143 3142 3141 3141 3140 3140 3139 3139 3138 3138 3137 3137 3137 3137 3136 3136 3136 3135 3135 3135 3134 3134 3134 3133 3133 3133 3132 3132 3132 3132 3132 3132 3132 3132 3132 3132 3132 3132 3133 3133 3134 3134 3134 3134 3135
3145 3145 3144 3143 3143 3142 3141 3141 3140 3139 3138 3138 3137 3137 3136 3136 3135 3135 3134 3134 3134 3133 3133 3133 3133 3132 3132 3131 3131 3130 3130 3130 3129 3129 3129 3129 3129 3129 3129 3128 3129 3128 3128 3128 3128 3129 3129 3129 3130 3130 3131 3131
3143 3143 3142 3141 3141 3140 3139 3138 3138 3137 3136 3135 3135 3134 3133 3133 3132 3132 3131 3131 3130 3130 3130 3129 3129 3129 3128 3128 3128 3127 3127 3126 3126 3126 3125 3125 3125 3125 3125 3125 3125 3125 3125 3125 3125 3125 3125 3125 3125 3126 3126 3127
3141 3141 3140 3139 3139 3138 3137 3136 3135 3135 3134 3133 3132 3131 3130 3129 3129 3128 3128 3127 3127 3126 3126 3125 3125 3125 3124 3124 3124 3124 3123 3123 3123 3122 3122 3121 3121 3121 3121 3121 3121 3122 3122 3122 3121 3121 3121 3121 3121 3122 3122 3122
3139 3139 3138 3137 3137 3136 3135 3134 3133 3132 3131 3130 3129 3128 3127 3126 3126 3125 3124 3123 3123 3122 3122 3122 3121 3121 3120 3120 3119 3119 3119 3119 3119 3118 3118 3118 3118 3117 3117 3117 3117 3117 3118 3118 3118 3118 3117 3117 3117 3118 3118 3118
3137 3136 3136 3135 3134 3133 3132 3132 3131 3130 3129 3128 3127 3126 3125 3124 3123 3122 3121 3120 3120 3119 3118 3118 3117 3117 3116 3116 3115 3115 3115 3114 3114 3114 3114 3114 3113 3113 3113 3113 3113 3113 3113 3113 3114 3114 3114 3113 3113 3113 3113 3114
3134 3134 3133 3132 3131 3130 3129 3128 3127 3127 3126 3125 3124 3123 3122 3121 3120 3119 3118 3117 3117 3116 3115 3114 3114 3113 3113 3112 3111 3111 3110 3110 3109 3109 3109 3109 3108 3108 3108 3108 3108 3108 3108 3108 3108 3109 3109 3109 3109 3109 3109 3109
3131 3130 3129 3128 3127 3127 3126 3125 3124 3123 3122 3121 3121 3120 3119 3118 3117 3116 3115 3114 3113 3112 3111 3110 3110 3109 3109 3108 3108 3107 3106 3106 3105 3105 3104 3104 3104 3103 3103 3103 3103 3104 3104 3103 3103 3103 3104 3104 3104 3104 3104 3104
3128 3127 3126 3125 3124 3123 3123 3122 3121 3120 3119 3119 3118 3117 3116 3115 3114 3113 3112 3111 3110 3108 3107 3106 3105 3105 3104 3103 3103 3102 3101 3101 3100 3100 3100 3099 3099 3099 3098 3098 3098 3098 3098 3098 3098 3098 3099 3099 3099 3098 3098 3099
3126 3125 3124 3123 3121 3120 3120 3119 3118 3117 3116 3115 3114 3113 3113 3112 3111 3109 3108 3107 3106 3105 3104 3103 3102 3101 3100 3099 3098 3098 3097 3096 3095 3095 3094 3094 3094 3094 3093 3093 3093 3093 3093 3093 3093 3093 3093 3093 3094 3093 3093 3093
3123 3122 3121 3120 3119 3118 3117 3116 3115 3114 3113 3112 3111 3110 3109 3108 3107 3106 3105 3104 3103 3101 3100 3099 3098 3097 3096 3095 3094 3093 3092 3091 3091 3090 3089 3089 3088 3088 3088 3088 3087 3087 3087 3087 3087 3087 3087 3087 3088 3087 3088 3088
3120 3119 3118 3117 3116 3115 3114 3113 3112 3111 3109 3108 3107 3106 3105 3105 3103 3103 3101 3100 3099 3098 3097 3095 3094 3093 3092 3091 3090 3089 3088 3087 3086 3085 3084 3084 3083 3083 3082 3082 3082 3082 3081 3081 3081 3081 3081 3081 3081 3081 3081 3081
3117 3116 3115 3114 3113 3112 3111 3110 3108 3107 3106 3105 3104 3103 3102 3101 3100 3098 3097 3096 3095 3093 3092 3091 3090 3089 3087 3086 3085 3084 3083 3082 3081 3080 3079 3078 3078 3077 3077 3077 3076 3076 3076 3076 3076 3075 3075 3075 3075 3075 3075 3075
3114 3113 3112 3111 3110 3109 3108 3107 3105 3104 3103 3102 3101 3100 3098 3097 3095 3094 3093 3091 3090 3089 3088 3086 3085 3084 3083 3082 3080 3079 3078 3077 3076 3075 3074 3073 3072 3072 3071 3071 3070 3070 3070 3070 3070 3070 3069 3069 3069 3069 3068 3068
3111 3110 3109 3108 3107 3106 3105 3103 3102 3101 3100 3099 3097 3096 3094 3093 3091 3090 3088 3087 3086 3084 3083 3082 3081 3079 3078 3077 3075 3074 3073 3072 3071 3070 3068 3067 3066 3066 3065 3065 3064 3064 3064 3064 3064 3063 3063 3062 3062 3062 3062 3061
3108 3107 3106 3105 3103 3102 3101 3100 3099 3097 3096 3094 3093 3091 3090 3088 3087 3085 3084 3082 3081 3080 3079 3077 3076 3075 3073 3072 3071 3069 3068 3067 3066 3065 3063 3062 3061 3060 3059 3058 3058 3058 3058 3058 3058 3057 3057 3056 3055 3055 3055 3054
3104 3103 3102 3101 3100 3098 3097 3096 3094 3092 3091 3089 3088 3086 3085 3084 3082 3080 3079 3078 3076 3075 3074 3073 3071 3070 3068 3067 3066 3064 3063 3062 3060 3059 3058 3056 3055 3054 3053 3052 3052 3051 3051 3051 3051 3051 3050 3049 3049 3048 3048 3047
3101 3099 3098 3097 3095 3094 3093 3091 3090 3088 3086 3085 3083 3082 3080 3079 3077 3075 3074 3072 3071 3070 3069 3067 3066 3065 3063 3062 3061 3059 3058 3056 3055 3053 3052 3050 3049 3048 3046 3045 3044 3044 3044 3044 3043 3043 3043 3042 3042 3041 3041 3041
3097 3096 3094 3093 3092 3090 3089 3087 3086 3084 3082 3081 3079 3078 3076 3075 3073 3071 3070 3068 3067 3065 3064 3062 3061 3059 3058 3056 3055 3053 3052 3050 3049 3048 3046 3045 3043 3042 3040 3039 3038 3036 3036 3036 3036 3036 3036 3035 3034 3034 3034 3033
3093 3092 3090 3089 3088 3086 3085 3083 3081 3080 3078 3077 3075 3074 3072 3071 3069 3068 3066 3064 3062 3061 3059 3057 3056 3054 3052 3051 3049 3047 3046 3044 3043 3041 3040 3039 3037 3035 3034 3032 3031 3030 3028 3028 3028 3028 3029 3029 3027 3027 3026 3026
3089 3088 3087 3085 3083 3081 3080 3078 3076 3075 3073 3072 3070 3069 3068 3066 3065 3063 3061 3059 3058 3056 3054 3052 3051 3049 3047 3046 3044 3042 3040 3039 3037 3035 3034 3032 3031 3029 3027 3026 3024 3022 3021 3020 3019 3018 3019 3021 3020 3020 3020 3019
3085 3084 3082 3080 3078 3077 3075 3073 3072 3070 3068 3067 3065 3064 3062 3061 3059 3058 3056 3054 3052 3051 3049 3047 3046 3044 3042 3041 3039 3037 3035 3034 3032 3030 3028 3026 3025 3023 3021 3020 3018 3016 3014 3012 3011 3010 3009 3010 3010 3011 3013 3013
3081 3079 3078 3076 3074 3072 3070 3069 3067 3065 3063 3062 3060 3059 3057 3055 3054 3052 3050 3048 3047 3045 3043 3041 3040 3038 3037 3035 3033 3032 3030 3028 3027 3025 3023 3021 3019 3017 3016 3014 3013 3010 3008 3006 3004 3003 3001 3000 3000 3000 3003 3005
3076 3075 3073 3071 3069 3068 3066 3064 3062 3060 3058 3057 3055 3053 3052 3050 3048 3047 3045 3043 3041 3039 3037 3035 3033 3032 3030 3029 3027 3025 3024 3022 3020 3018 3017 3015 3013 3011 3009 3008 3007 3005 3003 3001 2998 2997 2995 2993 2992 2991 2992 2993
3072 3070 3069 3067 3065 3063 3061 3060 3058 3055 3053 3052 3050 3048 3046 3044 3043 3041 3039 3037 3035 3033 3031 3029 3027 3026 3024 3022 3020 3018 3017 3015 3013 3011 3009 3008 3006 3005 3003 3001 3000 2998 2997 2995 2993 2991 2990 2987 2985 2983 2984 2983
3067 3065 3064 3062 3060 3059 3057 3055 3053 3050 3048 3047 3045 3043 3041 3039 3037 3035 3034 3031 3029 3027 3025 3023 3021 3019 3017 3015 3013 3012 3010 3008 3006 3004 3002 3001 2999 2997 2995 2993 2992 2990 2990 2989 2987 2985 2984 2982 2979 2977 2976 2975